This is the latest recevied weather packets stored in our database for station/object KE5AKC. If no packets are shown the sender has not sent any weather packets the latest 10 day(s).
| Time | Temp. | Humidity | Pressure | Rain* | Wind** | Luminosity | Snow |
|---|---|---|---|---|---|---|---|
| 1777833410 | 26.67° C | 30% | 1021.5 hPa | 0 mm | - | 997 W/m² | - |
| 1777833108 | 26.67° C | 32% | 1021.5 hPa | 0 mm | - | 1000 W/m² | - |
| 1777832806 | 26.67° C | 32% | 1021.5 hPa | 0 mm | - | 1000 W/m² | - |
| 1777832504 | 26.67° C | 31% | 1021.5 hPa | 0 mm | - | 997 W/m² | - |
| 1777832201 | 26.67° C | 32% | 1021.8 hPa | 0 mm | - | 999 W/m² | - |
| 1777831898 | 26.11° C | 35% | 1021.8 hPa | 0 mm | - | 1000 W/m² | - |
| 1777831594 | 26.67° C | 32% | 1021.8 hPa | 0 mm | - | 998 W/m² | - |
| 1777831292 | 27.22° C | 32% | 1021.8 hPa | 0 mm | - | 995 W/m² | - |
| 1777830989 | 26.67° C | 32% | 1021.8 hPa | 0 mm | - | 994 W/m² | - |
| 1777830686 | 26.67° C | 31% | 1022.2 hPa | 0 mm | - | 989 W/m² | - |
| 1777830383 | 26.67° C | 31% | 1022.2 hPa | 0 mm | - | 986 W/m² | - |
| 1777830080 | 26.67° C | 33% | 1022.2 hPa | 0 mm | - | 984 W/m² | - |
| 1777829775 | 26.67° C | 33% | 1022.5 hPa | 0 mm | - | 982 W/m² | - |
| 1777829472 | 26.67° C | 33% | 1022.5 hPa | 0 mm | - | 974 W/m² | - |
| 1777829169 | 26.11° C | 32% | 1022.9 hPa | 0 mm | - | 969 W/m² | - |
| 1777828866 | 25.56° C | 35% | 1022.9 hPa | 0 mm | - | 963 W/m² | - |
| 1777828562 | 26.11° C | 34% | 1022.5 hPa | 0 mm | - | 957 W/m² | - |
| 1777828259 | 26.67° C | 35% | 1022.9 hPa | 0 mm | - | 949 W/m² | - |
| 1777827950 | 26.67° C | 32% | 1022.9 hPa | 0 mm | - | 942 W/m² | - |
| 1777827648 | 26.11° C | 36% | 1022.9 hPa | 0 mm | - | 934 W/m² | - |
| 1777827345 | 25.56° C | 35% | 1022.9 hPa | 0 mm | - | 928 W/m² | - |
| 1777827041 | 25.56° C | 34% | 1022.9 hPa | 0 mm | - | 918 W/m² | - |
| 1777826738 | 25.56° C | 36% | 1022.9 hPa | 0 mm | - | 910 W/m² | - |
| 1777826435 | 25.56° C | 37% | 1022.9 hPa | 0 mm | - | 899 W/m² | - |
| 1777826132 | 26.11° C | 35% | 1022.9 hPa | 0 mm | - | 891 W/m² | - |
* Rain latest hour (hover to see other rain measurements)
** Current wind speed in m/s (hover to see current wind gust speed)